User: anonymous   Login
Location: Mentone
(34.5413°N, 85.5351°W)
Time: 05:52:50
(UTC-05:00)
Language:

SL-8 R/B - Orbit

View from above orbital plane
View from above orbital plane
View from above satellite
View from above satellite

Ground track
Ground track

The orbit data is extracted from the following two-line orbital elements,

1 33066U 08031G   17290.41902280 -.00000062 +00000-0 +22315-4 0  9991
2 33066 048.4434 258.6478 0008340 273.3226 225.2581 14.69573484500682
Epoch (UTC): 17 October 2017 10:03:23
Eccentricity: 0.0008340
inclination: 48.4434°
perigee height: 656 km
apogee height: 668 km
right ascension of ascending node: 258.6478°
argument of perigee: 273.3226°
revolutions per day: 14.69573484
mean anomaly at epoch: 225.2581°
orbit number at epoch: 50068

The dashed part of the orbit path shows where the satellite is in the earth's shadow,  

DLR